GW4569 Weather Reports


time (UTC)temp
C
wind
direction
speed
KPH
gust
KPH
rain 1hr
cm
rain 24hr
cm
rain mn
cm
humidity
%
barometer
mb
20260502152223 9 305 4.8 6.4 0.00 0.00 0.00 49 1016.4
20260502151721 8 295 3.2 11.3 0.00 0.00 0.00 52 1016.4
20260502151218 9 332 3.2 3.2 0.00 0.00 0.00 47 1016.6
20260502150715 8 329 3.2 9.7 0.00 0.00 0.00 50 1016.5
20260502150211 8 279 6.4 9.7 0.00 0.00 0.00 54 1016.6
20260502130601 5 293 1.6 3.2 0.00 0.00 0.00 74 1016.7
20260502123543 5 292 1.6 1.6 0.00 0.00 0.00 78 1016.5
20260502123039 5 292 0.0 1.6 0.00 0.00 0.00 78 1016.5
20260502122536 5 292 1.6 1.6 0.00 0.00 0.00 78 1016.7
20260502122034 5 292 1.6 1.6 0.00 0.00 0.00 82 1016.6
20260502121531 5 292 1.6 1.6 0.00 0.00 0.00 80 1016.6
20260502121028 4 292 1.6 1.6 0.00 0.00 0.00 82 1016.6
20260502120524 4 292 0.0 0.0 0.00 0.00 0.00 84 1016.3
20260502115519 3 292 0.0 0.0 0.00 0.00 0.00 84 1016.6
20260502115015 3 292 0.0 0.0 0.00 0.00 0.00 86 1016.8
20260502114512 3 292 0.0 0.0 0.00 0.00 0.00 89 1016.5
20260502114009 3 292 0.0 0.0 0.00 0.00 0.00 87 1016.5
20260502113506 2 292 0.0 0.0 0.00 0.00 0.00 89 1016.4
20260502113005 2 292 0.0 0.0 0.00 0.00 0.00 88 1016.4
20260502112502 2 292 0.0 0.0 0.00 0.00 0.00 89 1016.4
20260502112000 2 292 0.0 0.0 0.00 0.00 0.00 89 1016.3
20260502111457 2 292 0.0 0.0 0.00 0.00 0.00 89 1016.3
20260502110954 2 292 0.0 0.0 0.00 0.00 0.00 89 1016.4
20260502110451 2 292 0.0 0.0 0.00 0.00 0.00 90 1016.4
20260502105948 2 292 0.0 0.0 0.00 0.00 0.00 90 1016.3
20260502105446 2 292 0.0 0.0 0.00 0.00 0.00 89 1016.1
20260502104944 2 292 0.0 0.0 0.00 0.00 0.00 89 1015.8
20260502104440 2 292 0.0 0.0 0.00 0.00 0.00 88 1016.1
20260502103938 2 292 0.0 0.0 0.00 0.00 0.00 87 1016.4
20260502103435 2 292 0.0 0.0 0.00 0.00 0.00 87 1016.5
20260502102932 2 292 0.0 0.0 0.00 0.00 0.00 88 1016.4
20260502102429 2 292 0.0 0.0 0.00 0.00 0.00 88 1016.3
20260502101926 2 292 0.0 0.0 0.00 0.00 0.00 88 1016.4
20260502101425 2 292 0.0 0.0 0.00 0.00 0.00 88 1016.4
20260502100922 2 292 0.0 0.0 0.00 0.00 0.00 88 1016.5
20260502100422 3 292 0.0 0.0 0.00 0.00 0.00 87 1016.4
20260502091355 4 292 0.0 0.0 0.00 0.00 0.00 81 1016.4
20260502090853 5 292 0.0 0.0 0.00 0.00 0.00 80 1016.4
20260502090349 5 292 0.0 1.6 0.00 0.00 0.00 79 1016.2
20260502071244 6 284 1.6 1.6 0.00 0.00 0.00 71 1016.2
20260502070743 6 284 3.2 4.8 0.00 0.00 0.00 69 1016.3
20260502070240 6 284 0.0 1.6 0.00 0.00 0.00 71 1016.2
20260502065738 6 284 0.0 1.6 0.00 0.00 0.00 72 1016.4
20260502065236 6 284 0.0 1.6 0.00 0.00 0.00 70 1016.1
20260502064734 6 284 0.0 3.2 0.00 0.00 0.00 69 1015.9
20260502064232 6 284 1.6 3.2 0.00 0.00 0.00 70 1016.2
20260502063729 6 284 1.6 4.8 0.00 0.00 0.00 71 1016.3
20260502063227 7 282 0.0 1.6 0.00 0.00 0.00 71 1016.4
20260502062723 7 283 0.0 1.6 0.00 0.00 0.00 72 1016.3
20260502062221 7 283 0.0 0.0 0.00 0.00 0.00 71 1016.3
20260502061720 7 283 0.0 1.6 0.00 0.00 0.00 71 1016.5
20260502061217 7 283 3.2 3.2 0.00 0.00 0.00 70 1016.6
20260502060712 7 282 0.0 1.6 0.00 0.00 0.00 73 1016.5
20260502060208 7 282 1.6 4.8 0.00 0.00 0.00 72 1016.5
20260502055706 7 282 3.2 4.8 0.00 0.00 0.00 74 1016.3
20260502055204 7 282 1.6 1.6 0.00 0.00 0.00 75 1016.5
20260502054703 7 282 1.6 3.2 0.00 0.00 0.00 75 1016.5
20260502054200 7 282 1.6 3.2 0.00 0.00 0.00 75 1016.5
20260502053657 7 282 1.6 3.2 0.00 0.00 0.00 75 1016.6
20260502053154 7 280 1.6 3.2 0.00 0.00 0.00 75 1016.5
20260502052652 7 279 0.0 6.4 0.00 0.00 0.00 76 1016.6
20260502052150 7 294 1.6 6.4 0.00 0.00 0.00 75 1016.7
20260502051648 7 287 1.6 3.2 0.00 0.00 0.00 78 1016.6
20260502051146 7 284 4.8 4.8 0.00 0.00 0.00 77 1016.6
20260502050642 7 284 0.0 4.8 0.00 0.00 0.00 77 1016.5
20260502050139 8 283 1.6 4.8 0.00 0.00 0.00 76 1016.6
20260502045635 8 283 1.6 4.8 0.00 0.00 0.00 76 1016.6
20260502045133 8 283 1.6 3.2 0.00 0.00 0.00 76 1016.6
20260502044629 8 283 1.6 3.2 0.00 0.00 0.00 75 1016.6
20260502044126 8 283 0.0 0.0 0.00 0.00 0.00 76 1016.6
20260502043624 8 283 1.6 3.2 0.00 0.00 0.00 75 1016.6
20260502043120 8 283 1.6 4.8 0.00 0.00 0.00 74 1016.7
20260502042614 8 283 0.0 0.0 0.00 0.00 0.00 74 1017.0
20260502042112 8 283 1.6 3.2 0.00 0.00 0.00 74 1016.7
20260502041610 8 282 3.2 3.2 0.00 0.00 0.00 72 1016.7
20260502041106 8 277 1.6 3.2 0.00 0.00 0.00 73 1016.8
20260502040603 8 274 1.6 6.4 0.00 0.00 0.00 72 1016.6
20260502040101 8 275 0.0 1.6 0.00 0.00 0.00 71 1016.6
20260502035556 8 276 0.0 1.6 0.00 0.00 0.00 72 1016.8
20260502035054 8 274 1.6 4.8 0.00 0.00 0.00 72 1016.8
20260502034551 8 266 3.2 3.2 0.00 0.00 0.00 71 1017.0
20260502034049 8 266 1.6 1.6 0.00 0.00 0.00 71 1016.7
20260502033548 8 266 0.0 0.0 0.00 0.00 0.00 72 1016.8
20260502033044 8 266 0.0 0.0 0.00 0.00 0.00 73 1016.9
20260502032540 8 266 0.0 1.6 0.00 0.00 0.00 73 1016.9
20260502032037 8 266 0.0 3.2 0.00 0.00 0.00 71 1016.9
20260502031535 8 266 0.0 6.4 0.00 0.00 0.00 71 1016.9
20260502031033 9 283 4.8 6.4 0.00 0.00 0.00 71 1016.8
20260502030531 9 286 0.0 1.6 0.00 0.00 0.00 73 1016.8
20260502030029 9 286 0.0 1.6 0.00 0.00 0.00 73 1016.7
20260502025526 9 286 1.6 1.6 0.00 0.00 0.00 73 1016.7
20260502025024 9 286 1.6 3.2 0.00 0.00 0.00 74 1016.5
20260502024521 9 286 1.6 3.2 0.00 0.00 0.00 72 1016.4
20260502024020 9 286 1.6 3.2 0.00 0.00 0.00 72 1016.4
20260502023517 9 286 3.2 3.2 0.00 0.00 0.00 73 1016.3
20260502023014 9 285 0.0 3.2 0.00 0.00 0.00 74 1016.3
20260502022510 9 285 0.0 1.6 0.00 0.00 0.00 75 1016.3
20260502022008 9 285 0.0 1.6 0.00 0.00 0.00 75 1016.3
20260502021505 9 285 0.0 1.6 0.00 0.00 0.00 76 1015.9
20260502021002 9 285 3.2 4.8 0.00 0.00 0.00 76 1015.8
20260502020500 10 285 0.0 1.6 0.00 0.00 0.00 75 1015.6
20260502015956 10 285 1.6 3.2 0.00 0.00 0.00 75 1015.5
20260502015454 10 285 0.0 0.0 0.00 0.00 0.00 74 1015.6
20260502014950 10 285 0.0 4.8 0.00 0.00 0.00 74 1015.6
20260502014447 10 285 0.0 1.6 0.00 0.00 0.00 73 1015.5
20260502013944 10 285 1.6 1.6 0.00 0.00 0.00 73 1015.4
20260502013439 10 285 0.0 0.0 0.00 0.00 0.00 72 1015.4
20260502012936 10 291 0.0 0.0 0.00 0.00 0.00 72 1015.4
20260502012434 10 291 0.0 1.6 0.00 0.00 0.00 71 1015.2
20260502011931 10 291 1.6 3.2 0.00 0.00 0.00 70 1015.2
20260502011427 10 292 3.2 4.8 0.00 0.00 0.00 69 1014.9
20260502010924 10 285 4.8 6.4 0.00 0.00 0.00 69 1014.8
20260502010421 11 288 3.2 4.8 0.00 0.00 0.00 68 1014.7
20260502005917 11 309 3.2 9.7 0.00 0.00 0.00 68 1014.4
20260502005415 11 298 3.2 4.8 0.00 0.00 0.00 66 1014.4
20260502004913 11 309 3.2 4.8 0.00 0.00 0.00 65 1014.2
20260502004409 11 307 6.4 9.7 0.00 0.00 0.00 63 1014.1
20260502003906 11 303 0.0 4.8 0.00 0.00 0.00 64 1013.9
20260502003403 12 297 1.6 6.4 0.00 0.00 0.00 62 1013.6
20260502002859 12 306 3.2 4.8 0.00 0.00 0.00 60 1013.9
20260502002357 12 299 3.2 6.4 0.00 0.00 0.00 58 1013.5
20260502001854 12 298 3.2 4.8 0.00 0.00 0.00 56 1013.5
20260502001352 12 305 4.8 6.4 0.00 0.00 0.00 54 1013.3
20260502000849 13 299 1.6 11.3 0.00 0.00 0.00 54 1013.1
20260502000347 13 330 1.6 9.7 0.00 0.00 0.00 50 1013.1
20260501235843 14 301 4.8 6.4 0.00 0.00 0.00 48 1012.7
20260501235339 15 298 1.6 3.2 0.00 0.00 0.00 43 1012.6
20260501234834 15 298 3.2 4.8 0.00 0.00 0.00 39 1012.3
20260501234332 16 295 3.2 4.8 0.00 0.00 0.00 38 1012.2
20260501233830 16 315 3.2 6.4 0.00 0.00 0.00 39 1012.2
20260501233327 16 288 3.2 6.4 0.00 0.00 0.00 40 1012.3
20260501232823 16 282 4.8 9.7 0.00 0.00 0.00 36 1012.0
20260501232320 16 313 3.2 4.8 0.00 0.00 0.00 35 1012.1
20260501231818 16 298 3.2 4.8 0.00 0.00 0.00 40 1012.2
20260501231315 16 281 6.4 6.4 0.00 0.00 0.00 36 1012.3
20260501230814 16 287 6.4 6.4 0.00 0.00 0.00 36 1012.1
20260501230312 16 303 3.2 6.4 0.00 0.00 0.00 38 1012.0
20260501225809 16 325 3.2 12.9 0.00 0.00 0.00 34 1012.3
20260501225307 16 284 3.2 6.4 0.00 0.00 0.00 38 1012.1
20260501224803 17 292 3.2 6.4 0.00 0.00 0.00 35 1012.1
20260501224300 18 296 3.2 9.7 0.00 0.00 0.00 35 1012.3
20260501223756 18 312 4.8 6.4 0.00 0.00 0.00 34 1012.2
20260501223253 17 300 3.2 11.3 0.00 0.00 0.00 34 1012.3
20260501222749 18 293 1.6 4.8 0.00 0.00 0.00 34 1012.0
20260501222246 18 306 1.6 4.8 0.00 0.00 0.00 32 1012.4
20260501221743 18 319 6.4 14.5 0.00 0.00 0.00 32 1012.2
20260501221240 19 312 1.6 9.7 0.00 0.00 0.00 32 1012.3
20260501220738 18 296 6.4 12.9 0.00 0.00 0.00 33 1012.2
20260501220235 18 261 9.7 12.9 0.00 0.00 0.00 31 1012.2
20260501215732 17 340 3.2 6.4 0.00 0.00 0.00 34 1012.3
20260501215227 17 299 3.2 6.4 0.00 0.00 0.00 32 1012.2
20260501214722 18 291 4.8 12.9 0.00 0.00 0.00 34 1012.2
20260501214219 18 287 4.8 6.4 0.00 0.00 0.00 30 1012.1
20260501213715 18 293 1.6 6.4 0.00 0.00 0.00 32 1012.0
20260501213211 20 317 6.4 11.3 0.00 0.00 0.00 30 1012.1
20260501212708 19 278 1.6 6.4 0.00 0.00 0.00 29 1012.1
20260501212204 20 279 3.2 4.8 0.00 0.00 0.00 31 1012.0
20260501211701 18 332 0.0 3.2 0.00 0.00 0.00 33 1012.0
20260501211158 17 355 0.0 3.2 0.00 0.00 0.00 32 1012.4
20260501210655 17 310 3.2 4.8 0.00 0.00 0.00 30 1011.9
20260501210152 17 278 0.0 6.4 0.00 0.00 0.00 34 1012.1
20260501205648 17 297 3.2 3.2 0.00 0.00 0.00 30 1012.1
20260501205146 17 168 3.2 4.8 0.00 0.00 0.00 28 1012.2
20260501204642 17 278 6.4 6.4 0.00 0.00 0.00 26 1012.1
20260501204138 17 32 3.2 6.4 0.00 0.00 0.00 29 1012.1
20260501203635 18 303 4.8 6.4 0.00 0.00 0.00 26 1012.1
20260501203133 18 93 0.0 3.2 0.00 0.00 0.00 27 1011.9
20260501202629 18 16 1.6 6.4 0.00 0.00 0.00 27 1011.9
20260501202126 18 350 6.4 9.7 0.00 0.00 0.00 26 1012.2
20260501201623 18 280 4.8 6.4 0.00 0.00 0.00 32 1012.3
20260501201119 18 287 4.8 6.4 0.00 0.00 0.00 32 1012.2
20260501200617 20 298 3.2 11.3 0.00 0.00 0.00 28 1012.2
20260501200114 20 91 4.8 6.4 0.00 0.00 0.00 30 1012.2
20260501195612 20 282 3.2 6.4 0.00 0.00 0.00 33 1012.1
20260501195107 20 299 1.6 9.7 0.00 0.00 0.00 31 1012.3
20260501194603 19 312 1.6 14.5 0.00 0.00 0.00 31 1012.5
20260501194058 19 119 3.2 12.9 0.00 0.00 0.00 30 1012.6
20260501193556 18 85 4.8 11.3 0.00 0.00 0.00 28 1012.6
20260501193055 18 283 3.2 9.7 0.00 0.00 0.00 31 1012.7
20260501192551 18 328 4.8 11.3 0.00 0.00 0.00 32 1012.7
20260501192049 18 276 8.0 11.3 0.00 0.00 0.00 33 1012.8
20260501191545 18 50 4.8 12.9 0.00 0.00 0.00 31 1013.1
20260501191043 19 137 8.0 14.5 0.00 0.00 0.00 29 1013.3
20260501190538 18 0 1.6 11.3 0.00 0.00 0.00 31 1013.3
20260501190034 18 234 3.2 11.3 0.00 0.00 0.00 31 1013.5
20260501185530 19 301 3.2 12.9 0.00 0.00 0.00 34 1013.5
20260501185026 18 18 1.6 12.9 0.00 0.00 0.00 31 1013.5
20260501184523 18 81 3.2 4.8 0.00 0.00 0.00 31 1013.4
20260501184023 18 267 3.2 6.4 0.00 0.00 0.00 31 1013.6
20260501183520 18 328 6.4 9.7 0.00 0.00 0.00 34 1013.8
20260501183016 17 289 4.8 6.4 0.00 0.00 0.00 32 1013.6
20260501182513 17 56 11.3 12.9 0.00 0.00 0.00 31 1013.9
20260501182010 18 294 1.6 6.4 0.00 0.00 0.00 29 1013.8
20260501181508 18 325 3.2 6.4 0.00 0.00 0.00 32 1013.7
20260501181004 18 294 3.2 6.4 0.00 0.00 0.00 33 1014.0
20260501180502 18 301 3.2 4.8 0.00 0.00 0.00 32 1014.0
20260501175957 17 313 6.4 9.7 0.00 0.00 0.00 31 1014.0
20260501175455 17 318 3.2 6.4 0.00 0.00 0.00 30 1014.1
20260501174951 18 317 6.4 6.4 0.00 0.00 0.00 32 1014.1
20260501174449 17 27 4.8 9.7 0.00 0.00 0.00 29 1014.2
20260501173946 17 279 3.2 6.4 0.00 0.00 0.00 31 1014.2
20260501173444 18 182 0.0 3.2 0.00 0.00 0.00 29 1014.0
20260501172939 17 102 4.8 9.7 0.00 0.00 0.00 33 1014.2
20260501172435 17 46 3.2 9.7 0.00 0.00 0.00 31 1014.2
20260501171931 17 277 4.8 11.3 0.00 0.00 0.00 35 1014.2
20260501171427 17 316 4.8 6.4 0.00 0.00 0.00 34 1014.2
20260501170924 17 251 1.6 3.2 0.00 0.00 0.00 32 1014.3
20260501170421 16 277 8.0 12.9 0.00 0.00 0.00 38 1014.4
20260501165919 16 113 3.2 11.3 0.00 0.00 0.00 36 1014.6
20260501165416 16 244 3.2 6.4 0.00 0.00 0.00 36 1014.6
20260501164914 15 67 6.4 9.7 0.00 0.00 0.00 36 1014.6
20260501164411 16 266 3.2 6.4 0.00 0.00 0.00 39 1014.6
20260501163908 15 259 6.4 14.5 0.00 0.00 0.00 40 1014.7
20260501163404 16 260 9.7 12.9 0.00 0.00 0.00 37 1014.4
20260501162901 16 234 8.0 12.9 0.00 0.00 0.00 38 1014.6
20260501162357 16 324 1.6 3.2 0.00 0.00 0.00 40 1014.9
20260501161854 15 287 3.2 9.7 0.00 0.00 0.00 38 1014.9
20260501161351 16 202 0.0 6.4 0.00 0.00 0.00 38 1015.0
20260501160848 16 262 6.4 11.3 0.00 0.00 0.00 36 1015.0
20260501160344 14 177 3.2 6.4 0.00 0.00 0.00 38 1015.3
20260501155842 15 256 8.0 11.3 0.00 0.00 0.00 36 1015.3
20260501155338 14 13 3.2 9.7 0.00 0.00 0.00 44 1015.5